Regional Weather Roundup
Issued by NWS

Home | Current Version | Previous Version | Text Only | Print | Product List | Glossary On
Versions: 1 2 3 4 5 6 7 8 9 10 11 12 13 14 15 16 17 18 19 20 21 22 23 24 25 26 27 28 29 30 31 32 33 34 35 36 37 38 39 40 41 42 43 44 45 46 47 48 49 50
000
ASUS43 KLSX 160110
RWRMO

WEATHER SUMMARY FOR MISSOURI
NATIONAL WEATHER SERVICE SPRINGFIELD MO
700 PM CST SUN JAN 15 2017

NOTE: "FAIR" INDICATES FEW OR NO CLOUDS BELOW 12,000 FEET WITH NO
       SIGNIFICANT WEATHER AND/OR OBSTRUCTIONS TO VISIBILITY.
       CURRENT SKY AND/OR WEATHER CONDITIONS ARE NOT AVAILABLE FOR
       CHILLICOTHE AND FARMINGTON.

MOZ001>031-035>038-043-044-053-054-160200-
...NORTHERN AND WESTERN MISSOURI...

CITY           SKY/WX    TMP DP  RH WIND       PRES   REMARKS
KANSAS CTY INT CLOUDY    32  29  88 E12       30.17S WCI  23
KANSAS C DTWN  CLOUDY    33  32  96 E8        30.18F WCI  26
LEE`S SUMMIT   CLOUDY    33  31  92 E12       30.17S FOG     WCI  24
ST JOSEPH      CLOUDY    32  32 100 E9        30.18F WCI  24
CHILLICOTHE      N/A     32  30  92 E5        30.23F WCI  27
KIRKSVILLE     CLOUDY    31  30  96 E8        30.24F FOG     WCI  23

$$
MOZ066>068-077>081-088>096-101>105-160200-
...SOUTHWEST MISSOURI...

CITY           SKY/WX    TMP DP  RH WIND       PRES   REMARKS
SPRINGFIELD    CLOUDY    44  43  96 SE9       30.14R FOG
JOPLIN         CLOUDY    46  46 100 VRB3      30.09F FOG
BRANSON        FOG       41  41 100 E9        30.16S VSB 1/16

$$
MOZ032>034-039>042-045>050-055>058-069>072-160200-
...CENTRAL MISSOURI...

CITY           SKY/WX    TMP DP  RH WIND       PRES   REMARKS
COLUMBIA       CLOUDY    34  33  96 E9        30.22F FOG     WCI  27
JEFFERSON CITY CLOUDY    34  33  96 E7        30.24F WCI  28
ROLLA          FOG       32  32 100 E10       30.20S VSB 3/4 WCI  24
SEDALIA        CLOUDY    35  34  96 E10       30.21S FOG     WCI  27
WHITEMAN AFB   CLOUDY    34  34 100 E5        30.18R FOG     WCI  30
WARRENSBURG    CLOUDY    32  32 100 NE8       30.19S FOG     WCI  25
OSAGE BEACH    CLOUDY    34  33  96 E8        30.21S FOG     WCI  27

$$
MOZ051-052-059>065-160200-
...EAST CENTRAL MISSOURI...

CITY           SKY/WX    TMP DP  RH WIND       PRES   REMARKS
ST LOUIS INTL  DRIZZLE   36  34  92 E7        30.27F FOG
SPIRIT OF STL  LGT RAIN  35  35 100 E6        30.28S VSB 1
ST CHARLES     CLOUDY    34  34 100 E8        30.29S FOG     WCI  27

$$
MOZ072>076-082>087-097>100-106>115-160200-
...SOUTH CENTRAL AND SOUTHEAST MISSOURI...

CITY           SKY/WX    TMP DP  RH WIND       PRES   REMARKS
CAPE GIRARDEAU CLOUDY    40  38  93 NE8       30.27F FOG
FARMINGTON     FOG       35  34  96 E3        30.26S VSB 1/4
POPLAR BLUFF   FOG       40  40 100 NE7       30.26R VSB 3/4
WEST PLAINS    FOG       40  40 100 E7        30.21S VSB 1/4

$$




USA.gov is the U.S. government's official web portal to all federal, state and local government web resources and services.